INMARSAT 4-F2

Last updated on Thu Jul 03 2025 00:02:44 GMT+0000 (Coordinated Universal Time)

1 28899U 05044A 25183.63805689 -.00000256 00000+0 00000+0 0 9995 2 28899 4.6413 43.5246 0002034 59.2835 191.2977 1.00271293 72012
UTC large
Height (km)
Speed (km/s)
/
Latitude / Longitude
Inclination (degrees)
Orbital Period (minutes)
Azimuth
Elevation
Range (km)
Doppler Factor

Next 0 passes for location: London (51.5072 / 0.1276)

Sorry there are no passes over London.